Location: Raleigh
(35.7720°N, 78.6390°W)
Time: 17:48:23
(UTC-04:00)

Amateur Radio Satellites - All Passes

Search period start: 25 April 2015 17:18
Search period end: 26 April 2015 17:18
Location: Raleigh, 35.7720°N, 78.6390°W

Satellite Date Start Highest point End Downlink Frequencies (MHz)
Time Altitude Azimuth
MOZHAYETS 4 25 Apr 17:20:08 17:24:13 32° 96° (E) 17:28:19
CUSAT 1 25 Apr 17:34:36 17:37:48 43° 92° (E) 17:42:00 437.405
CUTE-I 25 Apr 17:37:41 17:41:06 18° 66° (ENE) 17:44:41 437.470
Cosmos 2499 25 Apr 17:39:39 17:45:03 19° 83° (E) 17:50:54 435.465 / 435.565
Cubesat XI-IV 25 Apr 17:46:38 17:50:36 22° 68° (ENE) 17:54:43 437.490
VERMONT LUNAR 25 Apr 17:49:15 17:52:37 68° 341° (NNW) 17:56:01 437.305
STARS 25 Apr 17:52:16 17:53:45 11° 294° (WNW) 17:54:58 437.465
DANDE 25 Apr 18:13:06 18:16:14 80° 280° (W) 18:20:19 436.750
PHONESAT 2.4 25 Apr 18:15:39 18:19:13 75° 156° (SSE) 18:22:49 2401.200-2431.200
ISS 25 Apr 18:17:29 18:19:36 16° 28° (NNE) 18:21:45 145.825
JAS-2 25 Apr 18:29:31 18:33:39 14° 274° (W) 18:37:08 435.910
PCSat 25 Apr 18:34:22 18:39:49 85° 242° (WSW) 18:45:13 145.827
GONETS M04 25 Apr 18:40:53 18:48:31 31° 289° (WNW) 18:56:00
CUBESAT XI-V 25 Apr 18:56:23 19:00:11 26° 95° (E) 19:04:05 437.345
MOZHAYETS 4 25 Apr 18:57:48 19:01:17 21° 290° (WNW) 19:04:37
STRAND 1 25 Apr 19:01:12 19:03:29 13° 90° (E) 19:06:04 437.568
RS-15 25 Apr 19:04:30 19:10:05 14° 347° (NNW) 19:15:28 29.354- 29.394
AUBIESAT-1 25 Apr 19:10:13 19:13:41 28° 99° (E) 19:16:58 437.475
CUTE-I 25 Apr 19:15:38 19:20:49 51° 260° (W) 19:26:00 437.470
Cubesat XI-IV 25 Apr 19:25:27 19:30:28 41° 262° (W) 19:35:28 437.490
VERMONT LUNAR 25 Apr 19:27:15 19:30:24 35° 358° (N) 19:33:33 437.305
Cosmos 2499 25 Apr 19:28:31 19:37:25 80° 277° (W) 19:46:10 435.465 / 435.565
PRISM 25 Apr 19:31:37 19:35:22 35° 98° (E) 19:39:08 437.425
ISS 25 Apr 19:53:02 19:56:14 58° 225° (SW) 19:59:25 145.825
PHONESAT 2.4 25 Apr 19:54:12 19:57:38 41° 352° (N) 20:01:03 2401.200-2431.200
M-CUBED/EXP-1 PRIME 25 Apr 20:02:03 20:06:06 51° 291° (WNW) 20:09:49 437.505
SEEDS 25 Apr 20:08:59 20:09:39 10° 67° (ENE) 20:10:35 437.485
CANX-2 25 Apr 20:15:05 20:17:51 18° 69° (ENE) 20:20:47 2200.000
CUTE 1.7 + AOD 2 25 Apr 20:23:55 20:26:59 20° 70° (ENE) 20:30:10 437.475
AAUSAT CUBESAT 2 25 Apr 20:25:41 20:26:52 11° 67° (ENE) 20:28:19 437.432
CINEMA 3 25 Apr 20:33:24 20:34:21 11° 65° (ENE) 20:35:35 145.822/145.860
CUBESAT XI-V 25 Apr 20:33:44 20:37:34 26° 289° (WNW) 20:41:20 437.345
STRAND 1 25 Apr 20:38:08 20:43:09 59° 286° (WNW) 20:48:10 437.568
YUBILEINY 25 Apr 20:42:31 20:43:45 11° 58° (ENE) 20:45:49 435.215
HO-68 25 Apr 20:44:02 20:51:00 56° 70° (ENE) 20:58:01 435.675
AUBIESAT-1 25 Apr 20:45:21 20:48:19 19° 297° (WNW) 20:51:00 437.475
GOMX 1 25 Apr 20:46:25 20:50:25 48° 74° (ENE) 20:54:37 467.674
BRITE-PL 25 Apr 20:58:51 21:02:57 69° 259° (W) 21:07:12 437.365/2234.400
VERMONT LUNAR 25 Apr 21:04:54 21:08:13 53° 14° (NNE) 21:11:32 437.305
SO-50 25 Apr 21:07:12 21:12:07 59° 58° (ENE) 21:16:57 436.795
PRISM 25 Apr 21:08:03 21:10:35 16° 292° (WNW) 21:12:57 437.425
COMPASS 1 25 Apr 21:15:21 21:19:27 52° 75° (ENE) 21:23:36 437.405
RS-15 25 Apr 21:22:06 21:29:03 18° 23° (NNE) 21:36:36 29.354- 29.394
DOVE 4 25 Apr 21:22:42 21:26:54 85° 77° (ENE) 21:31:20 437.250
Cosmos 2499 25 Apr 21:27:18 21:32:07 15° 298° (WNW) 21:36:14 435.465 / 435.565
Oscar 11 25 Apr 21:30:24 21:34:10 30° 72° (ENE) 21:38:01 145.826/435.025
ZACube-1 25 Apr 21:32:09 21:34:51 17° 68° (ENE) 21:37:46 437.345
PHONESAT 2.4 25 Apr 21:32:50 21:36:17 42° 9° (N) 21:39:42 2401.200-2431.200
DELFI C3 25 Apr 21:34:12 21:37:25 23° 71° (ENE) 21:40:42 145.870
SEEDS 25 Apr 21:40:46 21:44:59 60° 259° (W) 21:49:15 437.485
CANX-2 25 Apr 21:49:36 21:53:33 35° 263° (W) 21:57:30 2200.000
AAUSAT CUBESAT 2 25 Apr 21:57:56 22:02:04 54° 260° (W) 22:06:13 437.432
CUTE 1.7 + AOD 2 25 Apr 21:58:55 22:02:43 30° 264° (W) 22:06:31 437.475
DX 1 25 Apr 22:04:25 22:07:52 24° 70° (ENE) 22:11:25 434.975-435.025
CUBEBUG 2 25 Apr 22:05:39 22:09:55 64° 76° (ENE) 22:14:23 437.445
CINEMA 3 25 Apr 22:06:47 22:11:01 61° 260° (W) 22:15:28 145.822/145.860
Cosmos 2491 25 Apr 22:20:55 22:28:02 31° 86° (E) 22:35:27 435.465 / 435.565
50 SAT 25 Apr 22:21:19 22:23:41 16° 69° (ENE) 22:26:14 437.505
GOMX 1 25 Apr 22:27:51 22:29:02 11° 272° (W) 22:29:57 467.674
UWE-3 25 Apr 22:31:40 22:35:59 78° 258° (WSW) 22:40:28 435.000/436.395/437.385
HO-68 25 Apr 22:33:26 22:39:09 24° 267° (W) 22:44:38 435.675
YUBILEINY 25 Apr 22:33:59 22:42:42 68° 80° (E) 22:51:21 435.215
ESTCUBE 1 25 Apr 22:34:16 22:36:07 13° 67° (ENE) 22:38:11 437.505/2401.250
O/OREOS (USA 219) 25 Apr 22:35:05 22:39:35 60° 107° (ESE) 22:44:07 437.305
FUNcube-1 25 Apr 22:41:06 22:45:24 78° 259° (W) 22:49:50 145.935
VERMONT LUNAR 25 Apr 22:42:31 22:45:38 35° 210° (SSW) 22:48:44 437.305
UKube-1 25 Apr 22:46:29 22:50:46 72° 76° (ENE) 22:55:05 .
SO-50 25 Apr 22:49:30 22:52:14 14° 251° (WSW) 22:54:41 436.795
COMPASS 1 25 Apr 22:54:20 22:55:32 11° 271° (W) 22:56:26 437.405
TIGRISAT 25 Apr 22:58:36 23:02:01 20° 93° (E) 23:05:31 435.000
HUMSAT D 25 Apr 23:01:06 23:05:19 85° 76° (ENE) 23:09:36 437.325/437.525
UNISAT 6 25 Apr 23:02:43 23:06:25 23° 94° (E) 23:10:10 437.425
ZACube-1 25 Apr 23:06:55 23:10:56 37° 263° (W) 23:15:03 437.345
Oscar 11 25 Apr 23:07:08 23:10:25 20° 267° (W) 23:13:34 145.826/435.025
DELFI C3 25 Apr 23:09:12 23:12:29 23° 265° (W) 23:15:42 145.870
VELOX 1 25 Apr 23:10:56 23:15:17 62° 75° (ENE) 23:19:38 145.980
PHONESAT 2.4 25 Apr 23:11:05 23:14:38 64° 205° (SSW) 23:18:10 2401.200-2431.200
CUBEBUG 1 25 Apr 23:16:37 23:20:25 31° 72° (ENE) 23:24:17 437.445
BUGSAT 1 25 Apr 23:28:02 23:29:35 12° 91° (E) 23:31:23 437.445
AISAT 25 Apr 23:28:49 23:33:12 78° 258° (WSW) 23:37:37 437.250
POLYITAN 1 25 Apr 23:32:10 23:35:30 22° 94° (E) 23:38:54 437.675
DUCHIFAT 1 25 Apr 23:33:07 23:36:21 21° 94° (E) 23:39:42 145.980
RS-15 25 Apr 23:33:50 23:45:04 55° 52° (NE) 23:56:51 29.354- 29.394
DX 1 25 Apr 23:40:28 23:44:03 25° 265° (W) 23:47:35 434.975-435.025
ANTELSAT 25 Apr 23:44:02 23:48:45 69° 101° (ESE) 23:53:22 437.575/2403.000
QB50P1 25 Apr 23:50:09 23:54:05 35° 97° (E) 23:58:02 145.935-145.965
50 SAT 25 Apr 23:54:37 23:58:15 33° 263° (W) 00:01:54 437.505
TISAT 1 26 Apr 00:06:13 00:09:25 22° 70° (ENE) 00:12:44 437.305
ESTCUBE 1 26 Apr 00:08:09 00:12:34 55° 260° (W) 00:17:01 437.505/2401.250
QB50P2 26 Apr 00:16:00 00:20:20 76° 102° (ESE) 00:24:38 145.880/145.840
Cosmos 2491 26 Apr 00:16:08 00:24:34 51° 283° (WNW) 00:33:00 435.465 / 435.565
O/OREOS (USA 219) 26 Apr 00:17:25 00:19:30 13° 305° (NW) 00:21:22 437.305
YUBILEINY 26 Apr 00:32:27 00:38:50 22° 277° (W) 00:44:45 435.215
NANOSAT C BR1 26 Apr 00:34:06 00:38:22 67° 284° (WNW) 00:42:37 145.865
TIGRISAT 26 Apr 00:34:35 00:38:52 34° 288° (WNW) 00:43:01 435.000
SPROUT 26 Apr 00:36:10 00:40:24 67° 76° (ENE) 00:44:40 437.525
POPSAT HIP 1 26 Apr 00:37:23 00:41:38 61° 284° (WNW) 00:45:52 437.405
UNISAT 6 26 Apr 00:39:05 00:43:12 30° 289° (WNW) 00:47:13 437.425
BEESAT 26 Apr 00:48:07 00:49:21 11° 65° (ENE) 00:50:54 436.000
SWISSCUBE 26 Apr 00:49:49 00:51:51 13° 66° (ENE) 00:54:08 437.505
PHONESAT 2.4 26 Apr 00:51:04 00:52:28 12° 218° (SW) 00:53:44 2401.200-2431.200
CUBEBUG 1 26 Apr 00:53:46 00:56:53 19° 267° (W) 00:59:51 437.445
BUGSAT 1 26 Apr 01:01:22 01:05:21 45° 286° (WNW) 01:09:21 437.445
Cosmos 2504 26 Apr 01:04:16 01:12:07 59° 79° (E) 01:19:25 435.465 / 435.565
POLYITAN 1 26 Apr 01:07:43 01:11:24 27° 289° (WNW) 01:15:00 437.675
DUCHIFAT 1 26 Apr 01:08:32 01:12:11 27° 289° (WNW) 01:15:46 145.980
JUGNU 26 Apr 01:15:54 01:18:08 12° 169° (SSE) 01:20:26 437.505
ANTELSAT 26 Apr 01:23:28 01:24:59 11° 295° (WNW) 01:26:12 437.575/2403.000
QB50P1 26 Apr 01:26:49 01:29:43 17° 291° (WNW) 01:32:27 145.935-145.965
AIST 1 26 Apr 01:30:02 01:34:18 63° 278° (W) 01:38:33
TISAT 1 26 Apr 01:41:38 01:45:07 25° 264° (W) 01:48:33 437.305
RS-15 26 Apr 01:46:39 01:57:24 43° 251° (WSW) 02:08:16 29.354- 29.394
ITUPSAT 1 26 Apr 01:51:21 01:56:00 53° 74° (ENE) 02:00:41 437.325
KKS-1 26 Apr 02:15:15 02:17:49 16° 68° (ENE) 02:20:34 437.445
BEESAT 26 Apr 02:21:54 02:26:40 71° 258° (WSW) 02:31:27 436.000
SWISSCUBE 26 Apr 02:24:32 02:29:16 60° 259° (W) 02:34:00 437.505
Oscar 19 26 Apr 02:28:11 02:33:17 55° 100° (E) 02:38:22 437.125/150
GONETS M04 26 Apr 02:57:51 03:04:02 21° 66° (ENE) 03:10:35
Cosmos 2504 26 Apr 02:59:00 03:04:53 22° 276° (W) 03:10:11 435.465 / 435.565
JUGNU 26 Apr 03:02:48 03:06:25 17° 178° (S) 03:10:01 437.505
BEESAT 3 26 Apr 03:03:03 03:07:07 82° 119° (ESE) 03:11:15 437.485
ITAMSAT 1 26 Apr 03:03:40 03:08:20 34° 97° (E) 03:13:03 435.822/435.867
BEESAT 2 26 Apr 03:04:48 03:08:51 69° 118° (ESE) 03:12:59 435.950
STARS 26 Apr 03:07:37 03:11:36 37° 73° (ENE) 03:15:41 437.465
DANDE 26 Apr 03:13:16 03:16:23 13° 64° (ENE) 03:20:17 436.750
SRMSAT 26 Apr 03:13:50 03:16:27 13° 170° (S) 03:19:07 437.500
ITUPSAT 1 26 Apr 03:31:45 03:34:16 14° 269° (W) 03:36:32 437.325
Gurwin Techsat 1B 26 Apr 03:34:43 03:39:59 62° 100° (E) 03:45:14 435.225
KKS-1 26 Apr 03:49:57 03:54:09 41° 261° (W) 03:58:22 437.445
JAS-2 26 Apr 03:56:54 03:59:25 13° 85° (E) 04:02:12 435.910
AIST 2 26 Apr 04:07:01 04:11:15 81° 298° (WNW) 04:15:34 435.215
Oscar 19 26 Apr 04:08:57 04:12:14 17° 294° (WNW) 04:15:18 437.125/150
CUSAT 1 26 Apr 04:11:57 04:19:20 46° 76° (ENE) 04:27:19 437.405
MOZHAYETS 4 26 Apr 04:19:42 04:23:16 23° 70° (ENE) 04:26:57
HORYU 2 26 Apr 04:28:45 04:33:00 41° 98° (E) 04:37:14 437.375
ITAMSAT 1 26 Apr 04:43:29 04:47:42 25° 292° (WNW) 04:51:48 435.822/435.867
STARS 26 Apr 04:45:23 04:48:15 16° 268° (W) 04:50:57 437.465
BEESAT 3 26 Apr 04:45:24 04:45:46 10° 317° (NW) 04:45:56 437.485
BEESAT 2 26 Apr 04:45:54 04:47:29 12° 315° (NW) 04:48:54 435.950
JUGNU 26 Apr 04:51:38 04:54:41 14° 188° (S) 04:57:41 437.505
GONETS M04 26 Apr 04:53:03 05:01:53 73° 266° (W) 05:10:37
DANDE 26 Apr 04:53:06 05:00:47 72° 80° (E) 05:09:23 436.750
SRMSAT 26 Apr 05:01:16 05:04:52 17° 180° (S) 05:08:29 437.500
AO-7 26 Apr 05:06:36 05:14:48 59° 103° (ESE) 05:23:01 29.400- 29.500
M-CUBED/EXP-1 PRIME 26 Apr 05:14:37 05:16:45 13° 61° (ENE) 05:19:08 437.505
Gurwin Techsat 1B 26 Apr 05:16:26 05:19:30 15° 295° (WNW) 05:22:19 435.225
Cosmos 2499 26 Apr 05:25:10 05:31:37 29° 71° (ENE) 05:37:52 435.465 / 435.565
JAS-2 26 Apr 05:39:16 05:45:29 69° 286° (WNW) 05:51:00 435.910
AUBIESAT-1 26 Apr 05:54:26 05:58:31 30° 66° (ENE) 06:02:42 437.475
CUSAT 1 26 Apr 05:54:54 06:01:59 37° 269° (W) 06:09:17 437.405
MOZHAYETS 4 26 Apr 05:56:15 06:00:22 30° 264° (W) 06:04:26
CUBESAT XI-V 26 Apr 05:57:42 06:00:53 19° 69° (ENE) 06:04:13 437.345
HORYU 2 26 Apr 06:06:27 06:09:21 17° 292° (WNW) 06:12:04 437.375
STRAND 1 26 Apr 06:14:28 06:17:21 16° 66° (ENE) 06:20:27 437.568
PRISM 26 Apr 06:19:49 06:22:42 19° 69° (ENE) 06:25:42 437.425
DANDE 26 Apr 06:37:43 06:43:42 23° 271° (W) 06:49:43 436.750
M-CUBED/EXP-1 PRIME 26 Apr 06:46:19 06:51:04 69° 254° (WSW) 06:55:55 437.505
SRMSAT 26 Apr 06:50:33 06:53:18 13° 190° (S) 06:55:59 437.500
GONETS M04 26 Apr 06:55:11 06:57:26 11° 282° (WNW) 06:58:48
AO-7 26 Apr 07:00:16 07:07:10 29° 299° (WNW) 07:13:52 29.400- 29.500
Cosmos 2499 26 Apr 07:17:50 07:25:02 44° 270° (W) 07:31:43 435.465 / 435.565
AUBIESAT-1 26 Apr 07:29:09 07:33:13 27° 260° (W) 07:37:17 437.475
PCSat 26 Apr 07:31:46 07:35:19 19° 107° (ESE) 07:39:05 145.827
CUBESAT XI-V 26 Apr 07:33:50 07:38:06 36° 263° (W) 07:42:22 437.345
CUTE-I 26 Apr 07:35:27 07:40:47 81° 102° (ESE) 07:46:07 437.470
Cubesat XI-IV 26 Apr 07:45:14 07:50:34 81° 286° (WNW) 07:55:54 437.490
STRAND 1 26 Apr 07:51:08 07:56:09 55° 260° (W) 08:01:10 437.568
PRISM 26 Apr 07:54:18 07:58:00 30° 263° (W) 08:01:39 437.425
Cosmos 2491 26 Apr 08:37:01 08:39:32 12° 59° (ENE) 08:42:51 435.465 / 435.565
O/OREOS (USA 219) 26 Apr 08:47:58 08:52:27 71° 69° (ENE) 08:56:53 437.305
GOMX 1 26 Apr 08:50:41 08:54:41 23° 93° (E) 08:58:57 467.674
COMPASS 1 26 Apr 09:04:58 09:05:17 10° 89° (E) 09:05:56 437.405
BRITE-PL 26 Apr 09:05:06 09:10:07 48° 99° (E) 09:15:28 437.365/2234.400
PCSat 26 Apr 09:13:07 09:18:22 51° 301° (WNW) 09:23:40 145.827
CUTE-I 26 Apr 09:18:19 09:20:16 12° 297° (WNW) 09:21:53 437.470
DOVE 4 26 Apr 09:24:10 09:28:46 32° 96° (E) 09:33:32 437.250
SEEDS 26 Apr 09:28:33 09:32:07 27° 95° (E) 09:35:44 437.485
CANX-2 26 Apr 09:37:32 09:41:41 47° 99° (E) 09:45:47 2200.000
YUBILEINY 26 Apr 09:40:05 09:43:40 14° 80° (E) 09:48:00 435.215
AAUSAT CUBESAT 2 26 Apr 09:44:16 09:47:51 28° 96° (E) 09:51:27 437.432
CUTE 1.7 + AOD 2 26 Apr 09:46:32 09:50:44 55° 99° (E) 09:54:54 437.475
TIGRISAT 26 Apr 09:55:58 09:58:00 13° 66° (ENE) 10:00:18 435.000
UNISAT 6 26 Apr 10:00:00 10:02:32 15° 67° (ENE) 10:05:18 437.425
CUBEBUG 2 26 Apr 10:00:33 10:03:49 19° 92° (E) 10:07:13 437.445
HO-68 26 Apr 10:02:11 10:09:23 77° 104° (ESE) 10:16:33 435.675
CINEMA 3 26 Apr 10:04:12 10:08:55 41° 97° (E) 10:13:41 145.822/145.860
POLYITAN 1 26 Apr 10:24:19 10:25:53 12° 67° (ENE) 10:27:41 437.675
DUCHIFAT 1 26 Apr 10:24:50 10:26:09 12° 67° (ENE) 10:27:42 145.980
UWE-3 26 Apr 10:24:52 10:28:51 28° 95° (E) 10:32:51 435.000/436.395/437.385
GOMX 1 26 Apr 10:28:03 10:32:54 40° 287° (WNW) 10:37:54 467.674
Cosmos 2491 26 Apr 10:29:33 10:38:24 72° 81° (E) 10:47:13 435.465 / 435.565
FUNcube-1 26 Apr 10:32:55 10:36:43 26° 94° (E) 10:40:33 145.935
COMPASS 1 26 Apr 10:37:17 10:41:24 53° 284° (WNW) 10:45:26 437.405
UKube-1 26 Apr 10:38:23 10:40:45 15° 92° (E) 10:43:19 .
ANTELSAT 26 Apr 10:40:09 10:44:23 42° 73° (ENE) 10:48:46 437.575/2403.000
QB50P1 26 Apr 10:41:02 10:43:56 19° 70° (ENE) 10:46:58 145.935-145.965
BRITE-PL 26 Apr 10:44:39 10:48:23 20° 291° (WNW) 10:52:04 437.365/2234.400
HUMSAT D 26 Apr 10:49:17 10:52:07 18° 92° (E) 10:55:06 437.325/437.525
DELFI C3 26 Apr 10:50:37 10:54:36 57° 100° (E) 10:58:34 145.870
ISS 26 Apr 10:54:25 10:56:26 16° 129° (SE) 10:58:32 145.825
Oscar 11 26 Apr 10:56:00 11:00:22 89° 278° (W) 11:04:41 145.826/435.025
ZACube-1 26 Apr 10:58:03 11:02:33 51° 99° (E) 11:07:00 437.345
DOVE 4 26 Apr 11:02:03 11:06:24 28° 289° (WNW) 11:10:46 437.250
SEEDS 26 Apr 11:04:33 11:07:48 21° 290° (WNW) 11:10:57 437.485
VELOX 1 26 Apr 11:05:48 11:08:13 15° 92° (E) 11:10:51 145.980
QB50P2 26 Apr 11:06:16 11:10:09 37° 73° (ENE) 11:14:06 145.880/145.840
CANX-2 26 Apr 11:15:12 11:17:14 13° 292° (WNW) 11:19:02 2200.000
SO-50 26 Apr 11:19:07 11:23:18 36° 113° (ESE) 11:27:40 436.795
AAUSAT CUBESAT 2 26 Apr 11:20:13 11:23:20 20° 290° (WNW) 11:26:18 437.432
AISAT 26 Apr 11:22:58 11:26:36 25° 95° (E) 11:30:18 437.250
NANOSAT C BR1 26 Apr 11:23:41 11:27:48 60° 75° (ENE) 11:31:58 145.865
CUTE 1.7 + AOD 2 26 Apr 11:24:49 11:26:13 11° 293° (WNW) 11:27:23 437.475
BEESAT 3 26 Apr 11:25:13 11:28:20 21° 50° (NE) 11:31:28 437.485
POPSAT HIP 1 26 Apr 11:27:08 11:31:17 67° 77° (ENE) 11:35:30 437.405
BEESAT 2 26 Apr 11:27:36 11:30:30 19° 49° (NE) 11:33:28 435.950
TIGRISAT 26 Apr 11:29:55 11:34:18 54° 261° (W) 11:38:49 435.000
YUBILEINY 26 Apr 11:30:34 11:39:25 85° 95° (E) 11:48:17 435.215
DX 1 26 Apr 11:30:40 11:35:01 68° 101° (E) 11:39:22 434.975-435.025
50 SAT 26 Apr 11:34:25 11:38:06 34° 97° (E) 11:41:47 437.505
UNISAT 6 26 Apr 11:34:37 11:38:57 46° 262° (W) 11:43:23 437.425
CUBEBUG 2 26 Apr 11:36:13 11:40:40 39° 287° (WNW) 11:45:03 437.445
AIST 1 26 Apr 11:40:44 11:44:03 22° 75° (ENE) 11:47:28
CINEMA 3 26 Apr 11:42:09 11:45:51 20° 291° (WNW) 11:49:25 145.822/145.860
BUGSAT 1 26 Apr 11:48:23 11:52:23 82° 77° (ENE) 11:56:26 437.445
HO-68 26 Apr 11:51:36 11:56:27 19° 299° (WNW) 12:00:58 435.675
POLYITAN 1 26 Apr 11:57:19 12:01:24 50° 260° (W) 12:05:33 437.675
DUCHIFAT 1 26 Apr 11:57:29 12:01:34 52° 261° (W) 12:05:41 145.980
UWE-3 26 Apr 12:01:23 12:05:17 26° 290° (WNW) 12:09:05 435.000/436.395/437.385
ESTCUBE 1 26 Apr 12:03:51 12:08:00 37° 98° (E) 12:12:10 437.505/2401.250
FUNcube-1 26 Apr 12:09:07 12:12:59 26° 289° (WNW) 12:16:43 145.935
UKube-1 26 Apr 12:13:03 12:17:07 40° 287° (WNW) 12:21:09 .
QB50P1 26 Apr 12:15:53 12:19:37 30° 263° (W) 12:23:21 145.935-145.965
ANTELSAT 26 Apr 12:18:35 12:21:26 16° 269° (W) 12:24:07 437.575/2403.000
HUMSAT D 26 Apr 12:24:04 12:28:01 33° 287° (WNW) 12:31:51 437.325/437.525
SPROUT 26 Apr 12:27:12 12:29:32 15° 91° (E) 12:32:04 437.525
Cosmos 2491 26 Apr 12:28:14 12:34:31 21° 277° (W) 12:40:19 435.465 / 435.565
ISS 26 Apr 12:29:29 12:32:34 39° 323° (NW) 12:35:39 145.825
AIST 2 26 Apr 12:31:54 12:35:32 28° 52° (NE) 12:39:10 435.215
ZACube-1 26 Apr 12:36:00 12:38:30 14° 293° (WNW) 12:40:48 437.345
VELOX 1 26 Apr 12:40:49 12:45:01 42° 287° (WNW) 12:49:12 145.980
QB50P2 26 Apr 12:43:45 12:46:16 15° 268° (W) 12:48:35 145.880/145.840
CUBEBUG 1 26 Apr 12:43:52 12:48:15 83° 283° (WNW) 12:52:38 437.445
AISAT 26 Apr 12:59:25 13:03:08 26° 290° (WNW) 13:06:47 437.250
SO-50 26 Apr 13:00:08 13:03:58 24° 311° (NW) 13:07:48 436.795
BEESAT 3 26 Apr 13:02:46 13:06:24 30° 246° (WSW) 13:09:55 437.485
BEESAT 2 26 Apr 13:04:58 13:08:46 35° 246° (WSW) 13:12:26 435.950
50 SAT 26 Apr 13:10:11 13:12:39 15° 291° (WNW) 13:14:57 437.505
AIST 1 26 Apr 13:18:13 13:21:40 23° 270° (W) 13:25:01
TISAT 1 26 Apr 13:28:07 13:32:20 61° 101° (E) 13:36:32 437.305
YUBILEINY 26 Apr 13:31:45 13:37:33 18° 296° (WNW) 13:42:49 435.215
Cosmos 2504 26 Apr 13:36:57 13:45:28 56° 91° (E) 13:54:01 435.465 / 435.565
ESTCUBE 1 26 Apr 13:41:33 13:44:38 18° 291° (WNW) 13:47:32 437.505/2401.250
Oscar 19 26 Apr 13:42:06 13:47:08 59° 74° (ENE) 13:52:15 437.125/150
RS-15 26 Apr 13:54:34 14:04:24 43° 109° (ESE) 14:14:32 29.354- 29.394
ITUPSAT 1 26 Apr 13:56:04 13:59:03 17° 92° (E) 14:02:13 437.325
SPROUT 26 Apr 14:01:46 14:05:51 40° 287° (WNW) 14:09:53 437.525
AIST 2 26 Apr 14:10:37 14:14:01 23° 248° (WSW) 14:17:17 435.215
AO-7 26 Apr 14:16:42 14:18:56 12° 51° (NE) 14:21:45 29.400- 29.500
ITAMSAT 1 26 Apr 14:18:51 14:23:37 39° 72° (ENE) 14:28:27 435.822/435.867
BEESAT 26 Apr 14:25:19 14:29:41 36° 98° (E) 14:34:05 436.000
SWISSCUBE 26 Apr 14:27:52 14:32:23 42° 99° (E) 14:36:54 437.505
Gurwin Techsat 1B 26 Apr 14:52:52 14:58:09 74° 76° (ENE) 15:03:28 435.225
TISAT 1 26 Apr 15:06:52 15:07:40 10° 294° (WNW) 15:08:12 437.305
VERMONT LUNAR 26 Apr 15:21:33 15:23:37 16° 144° (SE) 15:25:47 437.305
Oscar 19 26 Apr 15:24:13 15:26:58 14° 270° (W) 15:29:25 437.125/150
HORYU 2 26 Apr 15:24:34 15:28:18 27° 71° (ENE) 15:32:08 437.375
Cosmos 2504 26 Apr 15:31:41 15:39:20 30° 289° (WNW) 15:46:40 435.465 / 435.565
ITUPSAT 1 26 Apr 15:32:42 15:37:11 42° 288° (WNW) 15:41:38 437.325
KKS-1 26 Apr 15:43:43 15:48:01 45° 99° (E) 15:52:20 437.445
JAS-2 26 Apr 15:45:40 15:52:52 43° 70° (ENE) 16:00:00 435.910
GONETS M04 26 Apr 15:55:38 16:02:21 27° 85° (E) 16:09:26
ITAMSAT 1 26 Apr 15:59:20 16:03:18 21° 267° (W) 16:07:06 435.822/435.867
PHONESAT 2.4 26 Apr 15:59:45 16:00:38 11° 142° (SE) 16:01:40 2401.200-2431.200
AO-7 26 Apr 16:02:14 16:10:19 62° 69° (ENE) 16:18:28 29.400- 29.500
BEESAT 26 Apr 16:03:47 16:07:19 20° 292° (WNW) 16:10:41 436.000
RS-15 26 Apr 16:06:08 16:16:39 50° 310° (NW) 16:27:18 29.354- 29.394
SWISSCUBE 26 Apr 16:06:45 16:09:57 18° 293° (WNW) 16:12:58 437.505
PCSat 26 Apr 16:24:21 16:24:32 10° 42° (NE) 16:25:02 145.827
STARS 26 Apr 16:36:04 16:40:31 72° 284° (WNW) 16:44:57 437.465
Gurwin Techsat 1B 26 Apr 16:37:03 16:38:47 11° 272° (W) 16:40:07 435.225
VERMONT LUNAR 26 Apr 16:57:25 17:00:47 86° 151° (SSE) 17:04:10 437.305
HORYU 2 26 Apr 17:01:16 17:04:56 24° 265° (W) 17:08:31 437.375
